Tacoma, WA

7:36 AM PDT on April 28, 2017 (GMT -0700)
McChord Air Force Base

Weather History for KTCM - July, 2013

Change the Weather History Date:

Tuesday, July 23, 2013

  Actual Average Record
Temperature  
Mean Temperature 68 °F -  
Max Temperature 85 °F 76 °F 98 °F (1991)
Min Temperature 51 °F 52 °F 42 °F (1963)
Cooling Degree Days 3    
Growing Degree Days 18 (Base 50)    
Moisture  
Dew Point 54 °F    
Average Humidity 84    
Maximum Humidity 100    
Minimum Humidity 30    
Precipitation  
Precipitation 0.00 in - - ()
Sea Level Pressure  
Sea Level Pressure 30.06 in    
Wind  
Wind Speed 3 mph (SSW)    
Max Wind Speed 9 mph    
Max Gust Speed -    
Visibility 5 miles    
Events Fog , Rain    
Averages and records for this station are not official NWS values.
T = Trace of Precipitation, MM = Missing Value Source: NWS Daily Summary

Daily Weather History Graph

Daily Weather History Graph

Search for Another Location

Airport or City:

Trip Planner

Search our weather history database for the weather conditions in past years. The results will help you decide how hot, cold, wet, or windy it might be!

Date:

Astronomy

Jul. 23, 2013 Rise Set
Actual Time 5:38 AM PDT 8:53 PM PDT
Civil Twilight 5:01 AM PDT 9:30 PM PDT
Nautical Twilight 4:13 AM PDT 10:18 PM PDT
Astronomical Twilight 3:12 AM PDT 11:18 PM PDT
Moon 9:13 PM PDT (7/23) 7:02 AM PDT (7/23)
Length of Visible Light 16h 28m
Length of Day
15h 15m
Full, 98% of the Moon is Illuminated
Jul 23
Full
Jul 29
Last Quarter
Aug 6
New
Aug 14
First Quarter
Aug 20
Full

Hourly Weather History & Observations

Time (PDT) Temp. Heat Index Dew Point Humidity Pressure Visibility Wind Dir Wind Speed Gust Speed Precip Events Conditions
12:58 AM 59.9 °F - 57.0 °F 90% 30.06 in 9.0 mi South 3.5 mph - N/A   Clear
1:43 AM 57.2 °F - 55.4 °F 94% 30.05 in 1.5 mi South 3.5 mph - N/A   Clear
1:48 AM 57.2 °F - 55.4 °F 94% 30.05 in 1.8 mi South 2.3 mph - N/A   Clear
1:53 AM 55.4 °F - 53.6 °F 94% 30.05 in 1.2 mi South 2.3 mph - N/A   Clear
1:58 AM 55.6 °F - 54.5 °F 96% 30.06 in 0.5 mi South 1.2 mph - N/A Fog Fog
2:03 AM 55.4 °F - 53.6 °F 94% 30.05 in 1.0 mi South 2.3 mph - N/A   Clear
2:08 AM 55.4 °F - 55.4 °F 100% 30.05 in 6.0 mi South 2.3 mph - N/A   Clear
2:33 AM 55.4 °F - 55.4 °F 100% 30.05 in 1.8 mi South 2.3 mph - N/A   Clear
2:43 AM 55.4 °F - 55.4 °F 100% 30.05 in 8.0 mi South 3.5 mph - N/A   Clear
2:48 AM 55.4 °F - 55.4 °F 100% 30.05 in 1.5 mi South 3.5 mph - N/A   Clear
2:53 AM 53.6 °F - 53.6 °F 100% 30.05 in 0.8 mi South 3.5 mph - N/A   Clear
2:58 AM 54.1 °F - 53.8 °F 99% 30.06 in 1.0 mi South 2.3 mph - N/A   Clear
3:03 AM 53.6 °F - 53.6 °F 100% 30.05 in 4.0 mi South 2.3 mph - N/A   Clear
3:08 AM 53.6 °F - 53.6 °F 100% 30.06 in 1.5 mi SW 2.3 mph - N/A   Clear
3:18 AM 53.6 °F - 53.6 °F 100% 30.06 in 9.0 mi South 2.3 mph - N/A   Clear
3:58 AM 54.1 °F - 54.0 °F 99% 30.07 in 10.0 mi South 2.3 mph - N/A   Clear
4:18 AM 55.4 °F - 55.4 °F 100% 30.06 in 1.2 mi ESE 1.2 mph - N/A   Clear
4:23 AM 55.4 °F - 55.4 °F 100% 30.06 in 0.8 mi South 1.2 mph - N/A   Clear
4:28 AM 55.4 °F - 55.4 °F 100% 30.06 in 1.2 mi SSE 1.2 mph - N/A   Clear
4:33 AM 55.4 °F - 55.4 °F 100% 30.06 in 5.0 mi Calm Calm - N/A   Clear
4:43 AM 53.6 °F - 53.6 °F 100% 30.06 in 2.0 mi SE 1.2 mph - N/A   Clear
4:48 AM 53.6 °F - 51.8 °F 94% 30.06 in 1.5 mi Calm Calm - N/A   Clear
4:53 AM 53.6 °F - 51.8 °F 94% 30.06 in 3.0 mi Calm Calm - N/A   Clear
4:58 AM 53.1 °F - 52.7 °F 99% 30.07 in 5.0 mi Calm Calm - N/A   Clear
5:03 AM 53.6 °F - 53.6 °F 100% 30.06 in 1.2 mi South 2.3 mph - N/A   Clear
5:08 AM 53.6 °F - 53.6 °F 100% 30.06 in 0.5 mi Calm Calm - N/A Fog Fog
5:13 AM 51.8 °F - 51.8 °F 100% 30.06 in 0.2 mi Calm Calm - N/A Fog Fog
5:18 AM 51.8 °F - 51.8 °F 100% 30.06 in 0.2 mi Calm Calm - N/A Fog Fog
5:23 AM 51.8 °F - 51.8 °F 100% 30.06 in 0.5 mi Calm Calm - N/A Fog Fog
5:33 AM 51.8 °F - 51.8 °F 100% 30.06 in 0.2 mi South 1.2 mph - N/A Fog Fog
5:38 AM 51.8 °F - 51.8 °F 100% 30.06 in 0.2 mi Calm Calm - N/A Fog Fog
5:43 AM 51.8 °F - 51.8 °F 100% 30.06 in 0.2 mi Calm Calm - N/A Fog Fog
5:48 AM 51.8 °F - 51.8 °F 100% 30.06 in 0.5 mi Calm Calm - N/A Fog Fog
5:53 AM 51.8 °F - 51.8 °F 100% 30.06 in 0.5 mi Calm Calm - N/A Fog Fog
5:58 AM 51.4 °F - 51.1 °F 99% 30.07 in 0.5 mi Calm Calm - N/A Fog Fog
6:08 AM 51.8 °F - 51.8 °F 100% 30.06 in 0.8 mi Calm Calm - N/A   Clear
6:13 AM 51.8 °F - 51.8 °F 100% 30.06 in 1.2 mi Calm Calm - N/A   Clear
6:18 AM 51.8 °F - 51.8 °F 100% 30.06 in 1.8 mi SW 1.2 mph - N/A   Clear
6:23 AM 51.8 °F - 51.8 °F 100% 30.06 in 9.0 mi SW 2.3 mph - N/A   Clear
6:25 AM 53.6 °F - 53.6 °F 100% 30.06 in 10.0 mi SW 2.3 mph - N/A   Partly Cloudy
6:35 AM 53.6 °F - 53.6 °F 100% 30.07 in 2.5 mi South 2.3 mph - N/A   Mostly Cloudy
6:40 AM 53.6 °F - 53.6 °F 100% 30.07 in 1.2 mi South 2.3 mph - N/A   Mostly Cloudy
6:45 AM 53.6 °F - 53.6 °F 100% 30.07 in 0.8 mi SSW 3.5 mph - N/A   Mostly Cloudy
6:50 AM 53.6 °F - 53.6 °F 100% 30.07 in 1.2 mi South 3.5 mph - N/A   Overcast
6:55 AM 53.6 °F - 53.6 °F 100% 30.07 in 10.0 mi South 2.3 mph - N/A   Overcast
6:58 AM 54.0 °F - 53.6 °F 99% 30.08 in 10.0 mi South 2.3 mph - N/A   Overcast
7:33 AM 57.2 °F - 57.2 °F 100% 30.08 in 2.0 mi West 3.5 mph - N/A   Overcast
8:05 AM 57.2 °F - 57.2 °F 100% 30.09 in 3.0 mi Calm Calm - N/A   Overcast
8:06 AM 57.2 °F - 57.2 °F 100% 30.08 in 4.0 mi North 2.3 mph - N/A   Overcast
8:55 AM 60.8 °F - 57.2 °F 88% 30.09 in 10.0 mi Calm Calm - N/A   Overcast
8:56 AM 60.8 °F - 57.2 °F 88% 30.08 in 10.0 mi Variable 1.2 mph - N/A   Overcast
9:12 AM 62.6 °F - 57.2 °F 82% 30.08 in 10.0 mi WSW 3.5 mph - N/A   Overcast
9:21 AM 62.6 °F - 57.2 °F 82% 30.08 in 10.0 mi WSW 3.5 mph - N/A   Overcast
9:28 AM 62.6 °F - 57.2 °F 82% 30.08 in 10.0 mi West 3.5 mph - N/A   Overcast
9:40 AM 64.4 °F - 57.2 °F 77% 30.08 in 10.0 mi SSW 2.3 mph - N/A   Scattered Clouds
9:56 AM 64.4 °F - 57.2 °F 77% 30.08 in 10.0 mi Variable 2.3 mph - N/A   Clear
10:56 AM 71.6 °F - 57.2 °F 60% 30.07 in 10.0 mi NNE 9.2 mph - N/A   Clear
11:29 AM 73.4 °F - 57.2 °F 57% 30.07 in 10.0 mi North 6.9 mph - N/A   Light Drizzle
11:39 AM 75.2 °F - 55.4 °F 50% 30.06 in 10.0 mi NNE 6.9 mph - N/A   Clear
11:50 AM 73.4 °F - 55.4 °F 53% 30.06 in 10.0 mi Variable 5.8 mph - N/A Rain Light Rain
11:56 AM 75.2 °F - 57.2 °F 53% 30.06 in 10.0 mi North 6.9 mph - N/A   Clear
11:57 AM 75.2 °F - 57.2 °F 53% 30.06 in 10.0 mi North 5.8 mph - N/A   Clear
12:56 PM 78.8 °F - 57.2 °F 47% 30.04 in 10.0 mi North 9.2 mph - N/A   Clear
1:56 PM 80.6 °F 80.3 °F 53.6 °F 39% 30.03 in 10.0 mi Variable 6.9 mph - N/A   Clear
2:58 PM 82.9 °F - 52.0 °F 34% 30.03 in 10.0 mi North 9.2 mph - N/A   Clear
3:58 PM 84.6 °F - 51.4 °F 32% 30.01 in 10.0 mi NNE 5.8 mph - N/A   Clear
4:58 PM 85.5 °F - 52.0 °F 31% 30.00 in 10.0 mi North 6.9 mph - N/A   Clear
5:58 PM 84.7 °F - 50.7 °F 31% 29.99 in 10.0 mi Variable 6.9 mph - N/A   Clear
6:58 PM 83.5 °F - 49.1 °F 30% 30.00 in 10.0 mi NE 8.1 mph - N/A   Clear
7:58 PM 80.2 °F - 49.1 °F 34% 29.99 in 10.0 mi NNE 4.6 mph - N/A   Clear
8:58 PM 75.4 °F - 48.6 °F 39% 30.00 in 10.0 mi NE 2.3 mph - N/A   Clear
9:58 PM 74.7 °F - 48.6 °F 40% 30.02 in 10.0 mi South 2.3 mph - N/A   Clear
10:58 PM 71.1 °F - 51.3 °F 49% 30.03 in 10.0 mi Calm Calm - N/A   Clear
11:58 PM 68.0 °F - 52.0 °F 56% 30.03 in 10.0 mi NNE 2.3 mph - N/A   Clear